INMARSAT 5-F2

Last updated on Mon Oct 20 2025 00:02:48 GMT+0000 (Coordinated Universal Time)

1 40384U 15005A 25292.25639716 .00000000 00000+0 00000+0 0 9997 2 40384 0.0144 212.7881 0000024 329.1309 243.3654 1.00268420 38575
UTC large
Height (km)
Speed (km/s)
/
Latitude / Longitude
Inclination (degrees)
Orbital Period (minutes)
Azimuth
Elevation
Range (km)
Doppler Factor

Next 0 passes for location: London (51.5072 / 0.1276)

Sorry there are no passes over London.